Time,TemperatureF,DewpointF,PressureIn,WindDirection,WindDirectionDegrees,WindSpeedMPH,WindSpeedGustMPH,Humidity,HourlyPrecipIn,Conditions,Clouds,dailyrainin,SoftwareType,DateUTC
2013-05-07 00:01:00,63.4,49.7,30.01,SE,130,1.0,4.0,61,0.00,,,0.00,WeatherCatV1.15B25,2013-05-07 04:01:00,
2013-05-07 00:02:00,63.3,49.6,30.01,SE,129,0.0,3.0,61,0.00,,,0.00,WeatherCatV1.15B25,2013-05-07 04:02:00,
2013-05-07 00:03:00,63.3,49.6,30.01,SE,129,2.0,4.0,61,0.00,,,0.00,WeatherCatV1.15B25,2013-05-07 04:03:00,
2013-05-07 00:05:00,63.3,49.6,30.01,ESE,122,3.0,4.0,61,0.00,,,0.00,WeatherCatV1.15B25,2013-05-07 04:05:00,
2013-05-07 00:10:00,63.2,50.0,30.01,South,189,4.0,6.0,62,0.00,,,0.00,WeatherCatV1.15B25,2013-05-07 04:10:00,
2013-05-07 00:15:00,63.2,50.0,30.01,SSE,153,3.0,4.0,62,0.00,,,0.00,WeatherCatV1.15B25,2013-05-07 04:15:00,
2013-05-07 00:20:00,63.2,50.0,30.01,SE,146,0.0,4.0,62,0.00,,,0.00,WeatherCatV1.15B25,2013-05-07 04:20:00,
2013-05-07 00:25:00,63.0,50.2,30.02,ESE,116,4.0,6.0,63,0.00,,,0.00,WeatherCatV1.15B25,2013-05-07 04:25:00,
2013-05-07 00:30:00,63.1,50.3,30.01,SE,126,4.0,7.0,63,0.00,,,0.00,WeatherCatV1.15B25,2013-05-07 04:30:00,
2013-05-07 00:35:00,63.0,50.6,30.02,SE,128,2.0,6.0,64,0.00,,,0.00,WeatherCatV1.15B25,2013-05-07 04:35:00,
2013-05-07 00:40:00,63.0,50.6,30.01,SE,126,4.0,4.0,64,0.00,,,0.00,WeatherCatV1.15B25,2013-05-07 04:40:00,
2013-05-07 00:45:00,62.8,50.4,30.02,SE,125,2.0,4.0,64,0.00,,,0.00,WeatherCatV1.15B25,2013-05-07 04:45:00,
2013-05-07 00:50:00,62.8,50.4,30.02,SSE,163,2.0,6.0,64,0.00,,,0.00,WeatherCatV1.15B25,2013-05-07 04:50:00,
2013-05-07 00:55:00,62.6,50.7,30.02,SE,126,3.0,4.0,65,0.00,,,0.00,WeatherCatV1.15B25,2013-05-07 04:55:00,
2013-05-07 01:00:00,62.4,50.5,30.02,ESE,121,2.0,4.0,65,0.00,,,0.00,WeatherCatV1.15B25,2013-05-07 05:00:00,
2013-05-07 01:05:00,62.3,50.4,30.02,SSE,152,0.0,4.0,65,0.00,,,0.00,WeatherCatV1.15B25,2013-05-07 05:05:00,
2013-05-07 01:10:00,62.2,50.7,30.02,SE,132,0.0,3.0,66,0.00,,,0.00,WeatherCatV1.15B25,2013-05-07 05:10:00,
2013-05-07 01:15:00,62.0,50.5,30.02,SE,144,0.0,3.0,66,0.00,,,0.00,WeatherCatV1.15B25,2013-05-07 05:15:00,
2013-05-07 01:20:00,61.8,50.7,30.02,SE,142,3.0,3.0,67,0.00,,,0.00,WeatherCatV1.15B25,2013-05-07 05:20:00,
2013-05-07 01:25:00,61.7,50.6,30.02,SE,142,0.0,2.0,67,0.00,,,0.00,WeatherCatV1.15B25,2013-05-07 05:25:00,
2013-05-07 01:30:00,61.6,50.5,30.02,SE,141,2.0,2.0,67,0.00,,,0.00,WeatherCatV1.15B25,2013-05-07 05:30:00,
2013-05-07 01:35:00,61.5,50.4,30.02,SE,141,0.0,0.0,67,0.00,,,0.00,WeatherCatV1.15B25,2013-05-07 05:35:00,
2013-05-07 01:40:00,61.5,50.4,30.01,SE,141,0.0,0.0,67,0.00,,,0.00,WeatherCatV1.15B25,2013-05-07 05:40:00,
2013-05-07 01:45:00,61.3,50.6,30.02,SE,141,0.0,0.0,68,0.00,,,0.00,WeatherCatV1.15B25,2013-05-07 05:45:00,
2013-05-07 01:50:00,60.9,50.3,30.01,SE,141,0.0,0.0,68,0.00,,,0.00,WeatherCatV1.15B25,2013-05-07 05:50:00,
2013-05-07 01:55:00,60.5,50.3,30.01,SE,141,0.0,0.0,69,0.00,,,0.00,WeatherCatV1.15B25,2013-05-07 05:55:00,
2013-05-07 02:00:00,60.1,49.9,30.01,SE,141,0.0,0.0,69,0.00,,,0.00,WeatherCatV1.15B25,2013-05-07 06:00:00,
2013-05-07 02:05:00,59.7,49.9,30.01,SE,130,0.0,0.0,70,0.00,,,0.00,WeatherCatV1.15B25,2013-05-07 06:05:00,
2013-05-07 02:10:00,59.4,50.0,30.01,SE,130,0.0,0.0,71,0.00,,,0.00,WeatherCatV1.15B25,2013-05-07 06:10:00,
2013-05-07 02:15:00,59.3,50.3,30.01,NNW,327,1.0,2.0,72,0.00,,,0.00,WeatherCatV1.15B25,2013-05-07 06:15:00,
2013-05-07 02:20:00,59.4,50.4,30.01,ENE,71,0.0,0.0,72,0.00,,,0.00,WeatherCatV1.15B25,2013-05-07 06:20:00,
2013-05-07 02:25:00,59.3,50.3,30.01,ENE,71,0.0,0.0,72,0.00,,,0.00,WeatherCatV1.15B25,2013-05-07 06:25:00,
2013-05-07 02:30:00,59.1,50.1,30.01,ENE,71,0.0,0.0,72,0.00,,,0.00,WeatherCatV1.15B25,2013-05-07 06:30:00,
2013-05-07 02:35:00,58.9,49.9,30.01,ENE,71,0.0,0.0,72,0.00,,,0.00,WeatherCatV1.15B25,2013-05-07 06:35:00,
2013-05-07 02:40:00,58.6,50.0,30.01,ENE,71,0.0,0.0,73,0.00,,,0.00,WeatherCatV1.15B25,2013-05-07 06:40:00,
2013-05-07 02:45:00,58.3,50.0,30.01,ENE,71,0.0,0.0,74,0.00,,,0.00,WeatherCatV1.15B25,2013-05-07 06:45:00,
2013-05-07 02:50:00,57.9,50.0,30.01,ENE,71,0.0,0.0,75,0.00,,,0.00,WeatherCatV1.15B25,2013-05-07 06:50:00,
2013-05-07 02:55:00,57.6,49.7,30.01,ENE,71,0.0,0.0,75,0.00,,,0.00,WeatherCatV1.15B25,2013-05-07 06:55:00,
2013-05-07 03:00:00,57.3,49.4,30.01,ENE,71,0.0,0.0,75,0.00,,,0.00,WeatherCatV1.15B25,2013-05-07 07:00:00,
2013-05-07 03:05:00,57.1,49.6,30.01,ENE,71,0.0,0.0,76,0.00,,,0.00,WeatherCatV1.15B25,2013-05-07 07:05:00,
2013-05-07 03:10:00,56.7,49.2,30.01,ENE,71,0.0,0.0,76,0.00,,,0.00,WeatherCatV1.15B25,2013-05-07 07:10:00,
2013-05-07 03:15:00,56.4,49.3,30.01,ENE,71,0.0,0.0,77,0.00,,,0.00,WeatherCatV1.15B25,2013-05-07 07:15:00,
2013-05-07 03:20:00,56.1,49.0,30.01,ENE,71,0.0,0.0,77,0.00,,,0.00,WeatherCatV1.15B25,2013-05-07 07:20:00,
2013-05-07 03:25:00,55.8,49.0,30.01,ENE,71,0.0,0.0,78,0.00,,,0.00,WeatherCatV1.15B25,2013-05-07 07:25:00,
2013-05-07 03:30:00,55.5,48.8,30.01,ENE,71,0.0,0.0,78,0.00,,,0.00,WeatherCatV1.15B25,2013-05-07 07:30:00,
2013-05-07 03:35:00,55.3,48.9,30.01,ENE,71,0.0,0.0,79,0.00,,,0.00,WeatherCatV1.15B25,2013-05-07 07:35:00,
2013-05-07 03:40:00,55.2,49.1,30.01,ENE,71,0.0,0.0,80,0.00,,,0.00,WeatherCatV1.15B25,2013-05-07 07:40:00,
2013-05-07 03:45:00,55.1,49.0,30.01,ENE,71,0.0,0.0,80,0.00,,,0.00,WeatherCatV1.15B25,2013-05-07 07:45:00,
2013-05-07 03:50:00,55.0,48.9,30.01,ENE,71,0.0,0.0,80,0.00,,,0.00,WeatherCatV1.15B25,2013-05-07 07:50:00,
2013-05-07 03:55:00,54.8,48.7,30.01,ENE,71,0.0,0.0,80,0.00,,,0.00,WeatherCatV1.15B25,2013-05-07 07:55:00,
2013-05-07 04:00:00,54.8,49.1,30.01,ENE,71,0.0,0.0,81,0.00,,,0.00,WeatherCatV1.15B25,2013-05-07 08:00:00,
2013-05-07 04:05:00,54.9,49.5,30.01,ENE,71,0.0,0.0,82,0.00,,,0.00,WeatherCatV1.15B25,2013-05-07 08:05:00,
2013-05-07 04:10:00,55.0,49.6,30.01,ENE,71,0.0,0.0,82,0.00,,,0.00,WeatherCatV1.15B25,2013-05-07 08:10:00,
2013-05-07 04:15:00,55.1,49.7,30.01,ENE,71,0.0,0.0,82,0.00,,,0.00,WeatherCatV1.15B25,2013-05-07 08:15:00,
2013-05-07 04:20:00,55.0,49.6,30.01,ENE,71,0.0,0.0,82,0.00,,,0.00,WeatherCatV1.15B25,2013-05-07 08:20:00,
2013-05-07 04:25:00,54.9,49.5,30.01,ENE,71,0.0,0.0,82,0.00,,,0.00,WeatherCatV1.15B25,2013-05-07 08:25:00,
2013-05-07 04:30:00,54.7,49.3,30.02,ENE,71,0.0,0.0,82,0.00,,,0.00,WeatherCatV1.15B25,2013-05-07 08:30:00,
2013-05-07 04:36:00,54.4,49.0,30.01,ENE,71,1.0,2.0,82,0.00,,,0.00,WeatherCatV1.15B25,2013-05-07 08:36:00,
2013-05-07 04:41:00,54.4,49.0,30.01,ENE,71,0.0,0.0,82,0.00,,,0.00,WeatherCatV1.15B25,2013-05-07 08:41:00,
2013-05-07 04:46:00,54.2,49.1,30.01,ENE,71,0.0,0.0,83,0.00,,,0.00,WeatherCatV1.15B25,2013-05-07 08:46:00,
2013-05-07 04:51:00,54.1,49.1,30.01,ENE,71,0.0,0.0,83,0.00,,,0.00,WeatherCatV1.15B25,2013-05-07 08:51:00,
2013-05-07 04:56:00,54.0,49.0,30.01,ENE,71,0.0,0.0,83,0.00,,,0.00,WeatherCatV1.15B25,2013-05-07 08:56:00,
2013-05-07 05:01:00,54.0,49.3,30.01,ENE,71,0.0,0.0,84,0.00,,,0.00,WeatherCatV1.15B25,2013-05-07 09:01:00,
2013-05-07 05:06:00,54.0,49.3,30.01,ENE,71,0.0,0.0,84,0.00,,,0.00,WeatherCatV1.15B25,2013-05-07 09:06:00,
2013-05-07 05:11:00,53.9,49.2,30.01,ENE,71,0.0,0.0,84,0.00,,,0.00,WeatherCatV1.15B25,2013-05-07 09:11:00,
2013-05-07 05:16:00,53.8,49.1,30.01,ENE,71,0.0,0.0,84,0.00,,,0.00,WeatherCatV1.15B25,2013-05-07 09:16:00,
2013-05-07 05:21:00,53.7,49.0,30.01,ENE,71,0.0,0.0,84,0.00,,,0.00,WeatherCatV1.15B25,2013-05-07 09:21:00,
2013-05-07 05:26:00,53.6,48.9,30.01,ENE,71,0.0,0.0,84,0.00,,,0.00,WeatherCatV1.15B25,2013-05-07 09:26:00,
2013-05-07 05:31:00,53.4,48.7,30.01,ENE,71,0.0,0.0,84,0.00,,,0.00,WeatherCatV1.15B25,2013-05-07 09:31:00,
2013-05-07 05:36:00,53.1,48.4,30.01,ENE,71,0.0,0.0,84,0.00,,,0.00,WeatherCatV1.15B25,2013-05-07 09:36:00,
2013-05-07 05:41:00,53.0,48.6,30.01,ENE,71,0.0,0.0,85,0.00,,,0.00,WeatherCatV1.15B25,2013-05-07 09:41:00,
2013-05-07 05:46:00,52.9,48.5,30.01,ENE,71,0.0,0.0,85,0.00,,,0.00,WeatherCatV1.15B25,2013-05-07 09:46:00,
2013-05-07 05:51:00,52.8,48.4,30.01,ENE,71,0.0,0.0,85,0.00,,,0.00,WeatherCatV1.15B25,2013-05-07 09:51:00,
2013-05-07 05:56:00,52.6,48.2,30.01,ENE,69,0.0,0.0,85,0.00,,,0.00,WeatherCatV1.15B25,2013-05-07 09:56:00,
2013-05-07 06:01:00,52.6,48.2,30.01,ENE,71,0.0,0.0,85,0.00,,,0.00,WeatherCatV1.15B25,2013-05-07 10:01:00,
2013-05-07 06:06:00,52.5,48.4,30.01,ENE,71,0.0,0.0,86,0.00,,,0.00,WeatherCatV1.15B25,2013-05-07 10:06:00,
2013-05-07 06:11:00,52.4,48.3,30.02,ENE,71,0.0,0.0,86,0.00,,,0.00,WeatherCatV1.15B25,2013-05-07 10:11:00,
2013-05-07 06:16:00,52.3,48.2,30.02,ENE,71,0.0,0.0,86,0.00,,,0.00,WeatherCatV1.15B25,2013-05-07 10:16:00,
2013-05-07 06:21:00,52.2,48.1,30.02,ENE,71,0.0,0.0,86,0.00,,,0.00,WeatherCatV1.15B25,2013-05-07 10:21:00,
2013-05-07 06:26:00,52.2,48.1,30.02,ENE,71,0.0,0.0,86,0.00,,,0.00,WeatherCatV1.15B25,2013-05-07 10:26:00,
2013-05-07 06:31:00,52.1,48.0,30.02,ENE,71,0.0,0.0,86,0.00,,,0.00,WeatherCatV1.15B25,2013-05-07 10:31:00,
2013-05-07 06:36:00,52.2,48.1,30.02,ENE,71,0.0,0.0,86,0.00,,,0.00,WeatherCatV1.15B25,2013-05-07 10:36:00,
2013-05-07 06:41:00,52.2,48.4,30.02,ENE,71,0.0,0.0,87,0.00,,,0.00,WeatherCatV1.15B25,2013-05-07 10:41:00,
2013-05-07 06:46:00,52.3,48.5,30.02,ENE,70,0.0,0.0,87,0.00,,,0.00,WeatherCatV1.15B25,2013-05-07 10:46:00,
2013-05-07 06:51:00,52.3,48.5,30.03,ENE,71,0.0,0.0,87,0.00,,,0.00,WeatherCatV1.15B25,2013-05-07 10:51:00,
2013-05-07 06:56:00,52.2,48.4,30.03,ENE,71,0.0,0.0,87,0.00,,,0.00,WeatherCatV1.15B25,2013-05-07 10:56:00,
2013-05-07 07:01:00,52.4,48.6,30.03,ENE,71,0.0,0.0,87,0.00,,,0.00,WeatherCatV1.15B25,2013-05-07 11:01:00,
2013-05-07 07:06:00,52.8,49.0,30.03,ENE,69,0.0,0.0,87,0.00,,,0.00,WeatherCatV1.15B25,2013-05-07 11:06:00,
2013-05-07 07:11:00,53.1,49.3,30.03,ENE,71,0.0,0.0,87,0.00,,,0.00,WeatherCatV1.15B25,2013-05-07 11:11:00,
2013-05-07 07:16:00,53.5,50.0,30.03,ENE,71,0.0,0.0,88,0.00,,,0.00,WeatherCatV1.15B25,2013-05-07 11:16:00,
2013-05-07 07:21:00,53.9,50.4,30.04,ENE,71,0.0,0.0,88,0.00,,,0.00,WeatherCatV1.15B25,2013-05-07 11:21:00,
2013-05-07 07:26:00,54.6,51.1,30.04,ENE,71,0.0,0.0,88,0.00,,,0.00,WeatherCatV1.15B25,2013-05-07 11:26:00,
2013-05-07 07:31:00,55.1,51.3,30.04,ENE,71,0.0,0.0,87,0.00,,,0.00,WeatherCatV1.15B25,2013-05-07 11:31:00,
2013-05-07 07:36:00,55.7,51.9,30.04,NNE,24,0.0,0.0,87,0.00,,,0.00,WeatherCatV1.15B25,2013-05-07 11:36:00,
2013-05-07 07:41:00,56.3,52.2,30.04,NNE,30,1.0,1.0,86,0.00,,,0.00,WeatherCatV1.15B25,2013-05-07 11:41:00,
2013-05-07 07:46:00,57.0,52.5,30.04,NNE,30,0.0,1.0,85,0.00,,,0.00,WeatherCatV1.15B25,2013-05-07 11:46:00,
2013-05-07 07:51:00,57.6,52.8,30.04,NNE,30,0.0,0.0,84,0.00,,,0.00,WeatherCatV1.15B25,2013-05-07 11:51:00,
2013-05-07 07:56:00,58.2,53.1,30.04,NNE,30,0.0,0.0,83,0.00,,,0.00,WeatherCatV1.15B25,2013-05-07 11:56:00,
2013-05-07 08:01:00,58.8,53.0,30.04,NNE,30,0.0,0.0,81,0.00,,,0.00,WeatherCatV1.15B25,2013-05-07 12:01:00,
2013-05-07 08:06:00,59.4,53.2,30.04,NNE,30,0.0,0.0,80,0.00,,,0.00,WeatherCatV1.15B25,2013-05-07 12:06:00,
2013-05-07 08:11:00,59.7,53.2,30.04,NNE,30,0.0,0.0,79,0.00,,,0.00,WeatherCatV1.15B25,2013-05-07 12:11:00,
2013-05-07 08:16:00,60.3,53.1,30.03,North,10,0.0,0.0,77,0.00,,,0.00,WeatherCatV1.15B25,2013-05-07 12:16:00,
2013-05-07 08:21:00,60.9,52.9,30.04,North,11,1.0,3.0,75,0.00,,,0.00,WeatherCatV1.15B25,2013-05-07 12:21:00,
2013-05-07 08:26:00,61.5,53.1,30.03,NNW,344,2.0,3.0,74,0.00,,,0.00,WeatherCatV1.15B25,2013-05-07 12:26:00,
2013-05-07 08:31:00,62.2,53.4,30.04,NNW,328,0.0,0.0,73,0.00,,,0.00,WeatherCatV1.15B25,2013-05-07 12:31:00,
2013-05-07 08:36:00,62.9,53.7,30.04,NNW,327,0.0,0.0,72,0.00,,,0.00,WeatherCatV1.15B25,2013-05-07 12:36:00,
2013-05-07 08:41:00,63.3,53.3,30.04,North,9,0.0,0.0,70,0.00,,,0.00,WeatherCatV1.15B25,2013-05-07 12:41:00,
2013-05-07 08:46:00,63.3,53.0,30.04,NW,325,0.0,3.0,69,0.00,,,0.00,WeatherCatV1.15B25,2013-05-07 12:46:00,
2013-05-07 08:51:00,63.4,53.4,30.04,North,0,0.0,0.0,70,0.00,,,0.00,WeatherCatV1.15B25,2013-05-07 12:51:00,
2013-05-07 08:56:00,63.7,53.3,30.04,SSW,205,0.0,2.0,69,0.00,,,0.00,WeatherCatV1.15B25,2013-05-07 12:56:00,
2013-05-07 09:01:00,63.9,53.1,30.04,NE,38,0.0,2.0,68,0.00,,,0.00,WeatherCatV1.15B25,2013-05-07 13:01:00,
2013-05-07 09:06:00,64.3,53.5,30.04,North,10,2.0,4.0,68,0.00,,,0.00,WeatherCatV1.15B25,2013-05-07 13:06:00,
2013-05-07 09:11:00,64.6,53.4,30.05,North,9,1.0,2.0,67,0.00,,,0.00,WeatherCatV1.15B25,2013-05-07 13:11:00,
2013-05-07 09:16:00,64.9,53.7,30.05,East,99,0.0,1.0,67,0.00,,,0.00,WeatherCatV1.15B25,2013-05-07 13:16:00,
2013-05-07 09:21:00,64.7,52.7,30.05,North,0,1.0,4.0,65,0.00,,,0.00,WeatherCatV1.15B25,2013-05-07 13:21:00,
2013-05-07 09:26:00,63.9,52.7,30.05,North,349,0.0,3.0,67,0.00,,,0.00,WeatherCatV1.15B25,2013-05-07 13:26:00,
2013-05-07 09:31:00,63.2,51.6,30.05,NNE,13,2.0,5.0,66,0.00,,,0.00,WeatherCatV1.15B25,2013-05-07 13:31:00,
2013-05-07 09:36:00,63.0,52.3,30.05,North,5,0.0,0.0,68,0.00,,,0.00,WeatherCatV1.15B25,2013-05-07 13:36:00,
2013-05-07 09:41:00,63.2,52.9,30.05,North,350,2.0,3.0,69,0.00,,,0.00,WeatherCatV1.15B25,2013-05-07 13:41:00,
2013-05-07 09:46:00,63.5,53.1,30.05,North,0,2.0,4.0,69,0.00,,,0.00,WeatherCatV1.15B25,2013-05-07 13:46:00,
2013-05-07 09:51:00,63.6,52.8,30.04,NE,53,0.0,2.0,68,0.00,,,0.00,WeatherCatV1.15B25,2013-05-07 13:51:00,
2013-05-07 09:56:00,63.8,52.6,30.04,North,5,1.0,4.0,67,0.00,,,0.00,WeatherCatV1.15B25,2013-05-07 13:56:00,
2013-05-07 10:01:00,63.9,52.7,30.04,NNW,341,3.0,4.0,67,0.00,,,0.00,WeatherCatV1.15B25,2013-05-07 14:01:00,
2013-05-07 10:06:00,63.9,52.3,30.04,North,349,0.0,5.0,66,0.00,,,0.00,WeatherCatV1.15B25,2013-05-07 14:06:00,
2013-05-07 10:11:00,64.2,52.6,30.04,North,0,0.0,4.0,66,0.00,,,0.00,WeatherCatV1.15B25,2013-05-07 14:11:00,
2013-05-07 10:16:00,64.2,52.6,30.04,North,355,2.0,4.0,66,0.00,,,0.00,WeatherCatV1.15B25,2013-05-07 14:16:00,
2013-05-07 10:21:00,63.9,52.3,30.04,NW,316,3.0,3.0,66,0.00,,,0.00,WeatherCatV1.15B25,2013-05-07 14:21:00,
2013-05-07 10:26:00,63.6,52.8,30.04,North,0,2.0,2.0,68,0.00,,,0.00,WeatherCatV1.15B25,2013-05-07 14:26:00,
2013-05-07 10:31:00,64.1,53.3,30.04,NNE,14,2.0,4.0,68,0.00,,,0.00,WeatherCatV1.15B25,2013-05-07 14:31:00,
2013-05-07 10:36:00,64.8,53.2,30.04,NE,52,5.0,5.0,66,0.00,,,0.00,WeatherCatV1.15B25,2013-05-07 14:36:00,
2013-05-07 10:41:00,65.5,53.4,30.04,NNE,17,0.0,2.0,65,0.00,,,0.00,WeatherCatV1.15B25,2013-05-07 14:41:00,
2013-05-07 10:46:00,66.3,53.7,30.04,NNE,26,3.0,5.0,64,0.00,,,0.00,WeatherCatV1.15B25,2013-05-07 14:46:00,
2013-05-07 10:51:00,64.6,51.7,30.04,North,350,5.0,9.0,63,0.00,,,0.00,WeatherCatV1.15B25,2013-05-07 14:51:00,
2013-05-07 10:56:00,63.4,51.4,30.05,ENE,63,1.0,7.0,65,0.00,,,0.00,WeatherCatV1.15B25,2013-05-07 14:56:00,
2013-05-07 11:01:00,63.1,52.0,30.04,North,10,3.0,9.0,67,0.00,,,0.00,WeatherCatV1.15B25,2013-05-07 15:01:00,
2013-05-07 11:06:00,63.4,52.6,30.04,ENE,69,2.0,4.0,68,0.00,,,0.00,WeatherCatV1.15B25,2013-05-07 15:06:00,
2013-05-07 11:11:00,64.6,52.6,30.04,NW,316,10.0,10.0,65,0.00,,,0.00,WeatherCatV1.15B25,2013-05-07 15:11:00,
2013-05-07 11:16:00,64.2,52.6,30.04,NW,324,3.0,6.0,66,0.00,,,0.00,WeatherCatV1.15B25,2013-05-07 15:16:00,
2013-05-07 11:21:00,64.2,53.0,30.04,East,82,3.0,3.0,67,0.00,,,0.00,WeatherCatV1.15B25,2013-05-07 15:21:00,
2013-05-07 11:26:00,64.9,53.3,30.04,NE,36,1.0,4.0,66,0.00,,,0.00,WeatherCatV1.15B25,2013-05-07 15:26:00,
2013-05-07 11:31:00,64.4,52.0,30.03,North,5,3.0,7.0,64,0.00,,,0.00,WeatherCatV1.15B25,2013-05-07 15:31:00,
2013-05-07 11:36:00,64.0,52.4,30.03,North,0,3.0,6.0,66,0.00,,,0.00,WeatherCatV1.15B25,2013-05-07 15:36:00,
2013-05-07 11:41:00,64.2,52.2,30.03,NE,36,1.0,10.0,65,0.00,,,0.00,WeatherCatV1.15B25,2013-05-07 15:41:00,
2013-05-07 11:46:00,64.6,52.1,30.03,NW,323,2.0,9.0,64,0.00,,,0.00,WeatherCatV1.15B25,2013-05-07 15:46:00,
2013-05-07 11:51:00,65.2,52.7,30.03,NNE,12,1.0,8.0,64,0.00,,,0.00,WeatherCatV1.15B25,2013-05-07 15:51:00,
2013-05-07 11:56:00,65.3,52.4,30.03,NNE,27,3.0,12.0,63,0.00,,,0.00,WeatherCatV1.15B25,2013-05-07 15:56:00,
2013-05-07 12:01:00,66.3,54.2,30.03,East,99,5.0,6.0,65,0.00,,,0.00,WeatherCatV1.15B25,2013-05-07 16:01:00,
2013-05-07 12:06:00,66.1,52.3,30.03,NW,323,3.0,12.0,61,0.00,,,0.00,WeatherCatV1.15B25,2013-05-07 16:06:00,
2013-05-07 12:11:00,65.8,52.8,30.03,WNW,300,5.0,9.0,63,0.00,,,0.00,WeatherCatV1.15B25,2013-05-07 16:11:00,
2013-05-07 12:16:00,65.9,53.8,30.03,North,9,4.0,8.0,65,0.00,,,0.00,WeatherCatV1.15B25,2013-05-07 16:16:00,
2013-05-07 12:21:00,66.0,52.6,30.03,NE,56,2.0,9.0,62,0.00,,,0.00,WeatherCatV1.15B25,2013-05-07 16:21:00,
2013-05-07 12:26:00,66.3,53.7,30.03,North,5,5.0,9.0,64,0.00,,,0.00,WeatherCatV1.15B25,2013-05-07 16:26:00,
2013-05-07 12:31:00,66.5,53.1,30.03,NNW,329,3.0,11.0,62,0.00,,,0.00,WeatherCatV1.15B25,2013-05-07 16:31:00,
2013-05-07 12:36:00,66.8,52.5,30.03,NNW,336,3.0,10.0,60,0.00,,,0.00,WeatherCatV1.15B25,2013-05-07 16:36:00,
2013-05-07 12:41:00,66.0,52.2,30.02,NNE,21,0.0,12.0,61,0.00,,,0.00,WeatherCatV1.15B25,2013-05-07 16:41:00,
2013-05-07 12:46:00,66.7,52.4,30.02,NE,40,1.0,6.0,60,0.00,,,0.00,WeatherCatV1.15B25,2013-05-07 16:46:00,
2013-05-07 12:52:00,66.7,52.4,30.02,NE,38,2.0,8.0,60,0.00,,,0.00,WeatherCatV1.15B25,2013-05-07 16:52:00,
2013-05-07 12:57:00,66.8,53.4,30.02,NNE,17,4.0,4.0,62,0.00,,,0.00,WeatherCatV1.15B25,2013-05-07 16:57:00,
2013-05-07 13:02:00,66.9,51.6,30.02,NE,36,3.0,13.0,58,0.00,,,0.00,WeatherCatV1.15B25,2013-05-07 17:02:00,
2013-05-07 13:07:00,66.0,51.7,30.02,NNE,30,2.0,11.0,60,0.00,,,0.00,WeatherCatV1.15B25,2013-05-07 17:07:00,
2013-05-07 13:12:00,66.2,52.3,30.02,NE,53,2.0,10.0,61,0.00,,,0.00,WeatherCatV1.15B25,2013-05-07 17:12:00,
2013-05-07 13:17:00,66.2,51.9,30.01,North,0,2.0,7.0,60,0.00,,,0.00,WeatherCatV1.15B25,2013-05-07 17:17:00,
2013-05-07 13:22:00,66.1,52.3,30.01,NE,41,3.0,6.0,61,0.00,,,0.00,WeatherCatV1.15B25,2013-05-07 17:22:00,
2013-05-07 13:27:00,66.8,52.9,30.01,NE,55,2.0,6.0,61,0.00,,,0.00,WeatherCatV1.15B25,2013-05-07 17:27:00,
2013-05-07 13:32:00,67.4,53.0,30.01,ENE,68,3.0,7.0,60,0.00,,,0.00,WeatherCatV1.15B25,2013-05-07 17:32:00,
2013-05-07 13:37:00,66.9,53.0,30.01,North,349,5.0,6.0,61,0.00,,,0.00,WeatherCatV1.15B25,2013-05-07 17:37:00,
2013-05-07 13:42:00,66.8,52.5,30.00,NNW,331,5.0,13.0,60,0.00,,,0.00,WeatherCatV1.15B25,2013-05-07 17:42:00,
2013-05-07 13:47:00,66.2,51.9,30.00,NW,325,4.0,6.0,60,0.00,,,0.00,WeatherCatV1.15B25,2013-05-07 17:47:00,
2013-05-07 13:52:00,67.0,53.1,30.00,North,0,0.0,4.0,61,0.00,,,0.00,WeatherCatV1.15B25,2013-05-07 17:52:00,
2013-05-07 13:57:00,67.1,51.8,30.00,North,350,4.0,6.0,58,0.00,,,0.00,WeatherCatV1.15B25,2013-05-07 17:57:00,
2013-05-07 14:02:00,66.3,52.0,30.00,NW,318,4.0,7.0,60,0.00,,,0.00,WeatherCatV1.15B25,2013-05-07 18:02:00,
2013-05-07 14:07:00,66.6,52.7,30.00,NE,48,2.0,9.0,61,0.00,,,0.00,WeatherCatV1.15B25,2013-05-07 18:07:00,
2013-05-07 14:12:00,67.5,52.2,30.00,NW,319,2.0,11.0,58,0.00,,,0.00,WeatherCatV1.15B25,2013-05-07 18:12:00,
2013-05-07 14:17:00,66.6,51.8,30.00,NNE,13,2.0,2.0,59,0.00,,,0.00,WeatherCatV1.15B25,2013-05-07 18:17:00,
2013-05-07 14:22:00,65.6,50.9,30.00,NNW,335,3.0,6.0,59,0.00,,,0.00,WeatherCatV1.15B25,2013-05-07 18:22:00,
2013-05-07 14:27:00,65.3,51.5,30.00,West,259,4.0,8.0,61,0.00,,,0.00,WeatherCatV1.15B25,2013-05-07 18:27:00,
2013-05-07 14:32:00,64.8,50.6,30.00,NE,43,0.0,7.0,60,0.00,,,0.00,WeatherCatV1.15B25,2013-05-07 18:32:00,
2013-05-07 14:37:00,65.3,52.4,30.00,ENE,65,2.0,3.0,63,0.00,,,0.00,WeatherCatV1.15B25,2013-05-07 18:37:00,
2013-05-07 14:42:00,66.8,51.5,29.99,NE,55,4.0,13.0,58,0.00,,,0.00,WeatherCatV1.15B25,2013-05-07 18:42:00,
2013-05-07 14:47:00,67.2,52.8,29.99,NNE,26,0.0,7.0,60,0.00,,,0.00,WeatherCatV1.15B25,2013-05-07 18:47:00,
2013-05-07 14:52:00,68.1,53.2,29.99,NW,323,5.0,11.0,59,0.00,,,0.00,WeatherCatV1.15B25,2013-05-07 18:52:00,
2013-05-07 14:57:00,67.9,51.6,29.99,NNE,29,4.0,9.0,56,0.00,,,0.00,WeatherCatV1.15B25,2013-05-07 18:57:00,
2013-05-07 15:02:00,67.7,52.4,29.99,North,350,0.0,3.0,58,0.00,,,0.00,WeatherCatV1.15B25,2013-05-07 19:02:00,
2013-05-07 15:07:00,68.5,52.2,29.99,NE,51,0.0,6.0,56,0.00,,,0.00,WeatherCatV1.15B25,2013-05-07 19:07:00,
2013-05-07 15:12:00,68.4,51.1,29.98,NE,56,3.0,10.0,54,0.00,,,0.00,WeatherCatV1.15B25,2013-05-07 19:12:00,
2013-05-07 15:17:00,68.1,51.8,29.98,NNE,30,0.0,3.0,56,0.00,,,0.00,WeatherCatV1.15B25,2013-05-07 19:17:00,
2013-05-07 15:22:00,68.7,51.9,29.98,NNW,327,3.0,10.0,55,0.00,,,0.00,WeatherCatV1.15B25,2013-05-07 19:22:00,
2013-05-07 15:27:00,68.1,50.8,29.98,NNW,339,5.0,9.0,54,0.00,,,0.00,WeatherCatV1.15B25,2013-05-07 19:27:00,
2013-05-07 15:32:00,67.3,50.6,29.98,North,0,0.0,6.0,55,0.00,,,0.00,WeatherCatV1.15B25,2013-05-07 19:32:00,
2013-05-07 15:37:00,67.2,50.5,29.98,NNE,28,0.0,6.0,55,0.00,,,0.00,WeatherCatV1.15B25,2013-05-07 19:37:00,
2013-05-07 15:42:00,67.0,50.8,29.98,NE,43,1.0,3.0,56,0.00,,,0.00,WeatherCatV1.15B25,2013-05-07 19:42:00,
2013-05-07 15:47:00,66.9,51.6,29.98,NNW,327,0.0,5.0,58,0.00,,,0.00,WeatherCatV1.15B25,2013-05-07 19:47:00,
2013-05-07 15:52:00,68.1,52.8,29.98,NNE,26,0.0,3.0,58,0.00,,,0.00,WeatherCatV1.15B25,2013-05-07 19:52:00,
2013-05-07 15:57:00,68.4,51.1,29.98,NW,325,0.0,7.0,54,0.00,,,0.00,WeatherCatV1.15B25,2013-05-07 19:57:00,
2013-05-07 16:02:00,68.6,50.3,29.98,NNW,345,0.0,6.0,52,0.00,,,0.00,WeatherCatV1.15B25,2013-05-07 20:02:00,
2013-05-07 16:07:00,68.8,49.9,29.98,NNW,342,3.0,10.0,51,0.00,,,0.00,WeatherCatV1.15B25,2013-05-07 20:07:00,
2013-05-07 16:12:00,69.4,52.0,29.97,NE,45,0.0,0.0,54,0.00,,,0.00,WeatherCatV1.15B25,2013-05-07 20:12:00,
2013-05-07 16:17:00,69.1,50.2,29.97,North,11,2.0,6.0,51,0.00,,,0.00,WeatherCatV1.15B25,2013-05-07 20:17:00,
2013-05-07 16:22:00,68.6,50.8,29.97,NNW,330,4.0,5.0,53,0.00,,,0.00,WeatherCatV1.15B25,2013-05-07 20:22:00,
2013-05-07 16:27:00,68.6,51.3,29.97,East,80,2.0,5.0,54,0.00,,,0.00,WeatherCatV1.15B25,2013-05-07 20:27:00,
2013-05-07 16:32:00,69.1,50.2,29.97,NE,49,0.0,10.0,51,0.00,,,0.00,WeatherCatV1.15B25,2013-05-07 20:32:00,
2013-05-07 16:37:00,69.5,50.6,29.97,NE,55,3.0,6.0,51,0.00,,,0.00,WeatherCatV1.15B25,2013-05-07 20:37:00,
2013-05-07 16:42:00,69.4,49.9,29.97,WNW,283,6.0,9.0,50,0.00,,,0.00,WeatherCatV1.15B25,2013-05-07 20:42:00,
2013-05-07 16:47:00,69.3,49.8,29.97,ENE,68,3.0,10.0,50,0.00,,,0.00,WeatherCatV1.15B25,2013-05-07 20:47:00,
2013-05-07 16:52:00,70.0,50.5,29.96,North,0,4.0,4.0,50,0.00,,,0.00,WeatherCatV1.15B25,2013-05-07 20:52:00,
2013-05-07 16:57:00,70.0,49.4,29.96,North,355,0.0,7.0,48,0.00,,,0.00,WeatherCatV1.15B25,2013-05-07 20:57:00,
2013-05-07 17:02:00,70.0,49.4,29.96,NE,55,0.0,6.0,48,0.00,,,0.00,WeatherCatV1.15B25,2013-05-07 21:02:00,
2013-05-07 17:07:00,70.0,49.4,29.97,North,5,0.0,9.0,48,0.00,,,0.00,WeatherCatV1.15B25,2013-05-07 21:07:00,
2013-05-07 17:12:00,70.1,49.5,29.96,ENE,59,0.0,2.0,48,0.00,,,0.00,WeatherCatV1.15B25,2013-05-07 21:12:00,
2013-05-07 17:17:00,70.1,49.5,29.96,NNW,346,3.0,7.0,48,0.00,,,0.00,WeatherCatV1.15B25,2013-05-07 21:17:00,
2013-05-07 17:22:00,70.0,49.4,29.96,NNW,338,2.0,7.0,48,0.00,,,0.00,WeatherCatV1.15B25,2013-05-07 21:22:00,
2013-05-07 17:27:00,70.0,49.9,29.96,East,84,2.0,3.0,49,0.00,,,0.00,WeatherCatV1.15B25,2013-05-07 21:27:00,
2013-05-07 17:32:00,70.1,49.5,29.96,NE,46,2.0,5.0,48,0.00,,,0.00,WeatherCatV1.15B25,2013-05-07 21:32:00,
2013-05-07 17:37:00,70.2,50.1,29.96,NNW,341,2.0,5.0,49,0.00,,,0.00,WeatherCatV1.15B25,2013-05-07 21:37:00,
2013-05-07 17:42:00,69.7,49.1,29.96,NE,53,0.0,6.0,48,0.00,,,0.00,WeatherCatV1.15B25,2013-05-07 21:42:00,
2013-05-07 17:47:00,69.0,49.6,29.96,NNE,26,1.0,2.0,50,0.00,,,0.00,WeatherCatV1.15B25,2013-05-07 21:47:00,
2013-05-07 17:52:00,68.3,49.5,29.96,NNW,331,0.0,3.0,51,0.00,,,0.00,WeatherCatV1.15B25,2013-05-07 21:52:00,
2013-05-07 17:57:00,67.6,48.8,29.96,North,355,0.0,4.0,51,0.00,,,0.00,WeatherCatV1.15B25,2013-05-07 21:57:00,
2013-05-07 18:02:00,66.8,49.1,29.96,NE,44,0.0,3.0,53,0.00,,,0.00,WeatherCatV1.15B25,2013-05-07 22:02:00,
2013-05-07 18:07:00,66.3,49.1,29.96,NNW,333,3.0,3.0,54,0.00,,,0.00,WeatherCatV1.15B25,2013-05-07 22:07:00,
2013-05-07 18:12:00,66.0,49.4,29.96,ENE,60,0.0,2.0,55,0.00,,,0.00,WeatherCatV1.15B25,2013-05-07 22:12:00,
2013-05-07 18:17:00,65.9,49.8,29.96,NE,53,0.0,3.0,56,0.00,,,0.00,WeatherCatV1.15B25,2013-05-07 22:17:00,
2013-05-07 18:22:00,66.1,49.9,29.96,NE,54,0.0,0.0,56,0.00,,,0.00,WeatherCatV1.15B25,2013-05-07 22:22:00,
2013-05-07 18:27:00,66.4,50.2,29.96,NE,54,0.0,1.0,56,0.00,,,0.00,WeatherCatV1.15B25,2013-05-07 22:27:00,
2013-05-07 18:32:00,66.5,50.3,29.96,NNE,13,0.0,0.0,56,0.00,,,0.00,WeatherCatV1.15B25,2013-05-07 22:32:00,
2013-05-07 18:37:00,66.6,49.9,29.96,NNW,340,1.0,3.0,55,0.00,,,0.00,WeatherCatV1.15B25,2013-05-07 22:37:00,
2013-05-07 18:42:00,66.8,50.1,29.96,NE,56,1.0,2.0,55,0.00,,,0.00,WeatherCatV1.15B25,2013-05-07 22:42:00,
2013-05-07 18:47:00,67.3,50.1,29.96,NE,38,2.0,4.0,54,0.00,,,0.00,WeatherCatV1.15B25,2013-05-07 22:47:00,
2013-05-07 18:52:00,68.2,50.9,29.96,NE,38,0.0,0.0,54,0.00,,,0.00,WeatherCatV1.15B25,2013-05-07 22:52:00,
2013-05-07 18:57:00,69.0,50.6,29.96,NE,38,1.0,3.0,52,0.00,,,0.00,WeatherCatV1.15B25,2013-05-07 22:57:00,
2013-05-07 19:02:00,69.5,50.6,29.96,NNE,30,0.0,2.0,51,0.00,,,0.00,WeatherCatV1.15B25,2013-05-07 23:02:00,
2013-05-07 19:07:00,69.5,50.6,29.96,NNE,19,0.0,0.0,51,0.00,,,0.00,WeatherCatV1.15B25,2013-05-07 23:07:00,
2013-05-07 19:12:00,69.4,49.4,29.96,North,9,1.0,2.0,49,0.00,,,0.00,WeatherCatV1.15B25,2013-05-07 23:12:00,
2013-05-07 19:17:00,69.6,49.0,29.96,NNE,26,0.0,2.0,48,0.00,,,0.00,WeatherCatV1.15B25,2013-05-07 23:17:00,
2013-05-07 19:22:00,69.9,49.3,29.96,NE,34,0.0,0.0,48,0.00,,,0.00,WeatherCatV1.15B25,2013-05-07 23:22:00,
2013-05-07 19:27:00,70.0,49.4,29.96,North,350,0.0,0.0,48,0.00,,,0.00,WeatherCatV1.15B25,2013-05-07 23:27:00,
2013-05-07 19:32:00,70.1,49.5,29.96,North,350,0.0,0.0,48,0.00,,,0.00,WeatherCatV1.15B25,2013-05-07 23:32:00,
2013-05-07 19:37:00,70.0,49.4,29.96,North,351,0.0,0.0,48,0.00,,,0.00,WeatherCatV1.15B25,2013-05-07 23:37:00,
2013-05-07 19:42:00,69.9,49.9,29.96,North,351,0.0,0.0,49,0.00,,,0.00,WeatherCatV1.15B25,2013-05-07 23:42:00,
2013-05-07 19:47:00,69.4,49.9,29.96,North,349,0.0,2.0,50,0.00,,,0.00,WeatherCatV1.15B25,2013-05-07 23:47:00,
2013-05-07 19:52:00,68.7,49.8,29.96,North,349,1.0,3.0,51,0.00,,,0.00,WeatherCatV1.15B25,2013-05-07 23:52:00,
2013-05-07 19:57:00,67.8,50.0,29.96,North,350,0.0,0.0,53,0.00,,,0.00,WeatherCatV1.15B25,2013-05-07 23:57:00,
2013-05-07 20:02:00,66.9,49.2,29.95,North,355,0.0,0.0,53,0.00,,,0.00,WeatherCatV1.15B25,2013-05-08 00:02:00,
2013-05-07 20:07:00,66.3,49.1,29.95,North,0,0.0,1.0,54,0.00,,,0.00,WeatherCatV1.15B25,2013-05-08 00:07:00,
2013-05-07 20:12:00,65.7,49.1,29.95,NE,35,0.0,0.0,55,0.00,,,0.00,WeatherCatV1.15B25,2013-05-08 00:12:00,
2013-05-07 20:17:00,65.4,49.3,29.96,NNE,26,0.0,0.0,56,0.00,,,0.00,WeatherCatV1.15B25,2013-05-08 00:17:00,
2013-05-07 20:22:00,65.1,49.0,29.96,NNE,25,0.0,0.0,56,0.00,,,0.00,WeatherCatV1.15B25,2013-05-08 00:22:00,
2013-05-07 20:27:00,64.8,49.7,29.96,NNE,25,0.0,0.0,58,0.00,,,0.00,WeatherCatV1.15B25,2013-05-08 00:27:00,
2013-05-07 20:32:00,64.5,49.4,29.97,NNE,26,0.0,0.0,58,0.00,,,0.00,WeatherCatV1.15B25,2013-05-08 00:32:00,
2013-05-07 20:37:00,64.3,49.2,29.96,NNE,25,0.0,0.0,58,0.00,,,0.00,WeatherCatV1.15B25,2013-05-08 00:37:00,
2013-05-07 20:42:00,64.1,49.5,29.96,NNE,26,0.0,0.0,59,0.00,,,0.00,WeatherCatV1.15B25,2013-05-08 00:42:00,
2013-05-07 20:47:00,63.9,49.7,29.96,NNE,25,0.0,0.0,60,0.00,,,0.00,WeatherCatV1.15B25,2013-05-08 00:47:00,
2013-05-07 20:52:00,63.7,50.0,29.96,NNE,26,0.0,0.0,61,0.00,,,0.00,WeatherCatV1.15B25,2013-05-08 00:52:00,
2013-05-07 20:57:00,63.5,49.8,29.97,NNE,26,0.0,0.0,61,0.00,,,0.00,WeatherCatV1.15B25,2013-05-08 00:57:00,
2013-05-07 21:02:00,63.2,50.0,29.97,NNE,25,0.0,0.0,62,0.00,,,0.00,WeatherCatV1.15B25,2013-05-08 01:02:00,
2013-05-07 21:07:00,62.9,50.1,29.97,NNE,26,0.0,0.0,63,0.00,,,0.00,WeatherCatV1.15B25,2013-05-08 01:07:00,
2013-05-07 21:12:00,62.5,49.3,29.97,NNE,26,0.0,0.0,62,0.00,,,0.00,WeatherCatV1.15B25,2013-05-08 01:12:00,
2013-05-07 21:17:00,62.3,49.5,29.97,NNE,26,0.0,0.0,63,0.00,,,0.00,WeatherCatV1.15B25,2013-05-08 01:17:00,
2013-05-07 21:22:00,61.8,49.5,29.97,NNE,25,0.0,0.0,64,0.00,,,0.00,WeatherCatV1.15B25,2013-05-08 01:22:00,
2013-05-07 21:27:00,61.5,49.6,29.97,NNE,26,0.0,0.0,65,0.00,,,0.00,WeatherCatV1.15B25,2013-05-08 01:27:00,
2013-05-07 21:32:00,61.3,49.4,29.98,NNE,26,0.0,0.0,65,0.00,,,0.00,WeatherCatV1.15B25,2013-05-08 01:32:00,
2013-05-07 21:37:00,61.2,50.2,29.98,NNE,25,0.0,0.0,67,0.00,,,0.00,WeatherCatV1.15B25,2013-05-08 01:37:00,
2013-05-07 21:42:00,61.0,50.0,29.98,NNE,25,0.0,0.0,67,0.00,,,0.00,WeatherCatV1.15B25,2013-05-08 01:42:00,
2013-05-07 21:47:00,60.8,49.8,29.98,NNE,26,0.0,0.0,67,0.00,,,0.00,WeatherCatV1.15B25,2013-05-08 01:47:00,
2013-05-07 21:52:00,60.6,50.0,29.98,NNE,26,0.0,0.0,68,0.00,,,0.00,WeatherCatV1.15B25,2013-05-08 01:52:00,
2013-05-07 21:57:00,60.4,50.2,29.98,NNE,25,0.0,0.0,69,0.00,,,0.00,WeatherCatV1.15B25,2013-05-08 01:57:00,
2013-05-07 22:02:00,60.4,50.2,29.98,NNE,26,0.0,0.0,69,0.00,,,0.00,WeatherCatV1.15B25,2013-05-08 02:02:00,
2013-05-07 22:07:00,60.4,50.2,29.98,NNE,26,0.0,0.0,69,0.00,,,0.00,WeatherCatV1.15B25,2013-05-08 02:07:00,
2013-05-07 22:12:00,60.3,50.5,29.98,NNE,25,0.0,0.0,70,0.00,,,0.00,WeatherCatV1.15B25,2013-05-08 02:12:00,
2013-05-07 22:17:00,60.2,50.4,29.98,NNE,25,0.0,0.0,70,0.00,,,0.00,WeatherCatV1.15B25,2013-05-08 02:17:00,
2013-05-07 22:22:00,60.4,50.6,29.98,NNE,26,0.0,0.0,70,0.00,,,0.00,WeatherCatV1.15B25,2013-05-08 02:22:00,
2013-05-07 22:27:00,61.1,50.5,29.98,NNE,26,0.0,0.0,68,0.00,,,0.00,WeatherCatV1.15B25,2013-05-08 02:27:00,
2013-05-07 22:32:00,61.9,50.4,29.98,North,9,0.0,0.0,66,0.00,,,0.00,WeatherCatV1.15B25,2013-05-08 02:32:00,
2013-05-07 22:37:00,62.5,50.6,29.98,North,9,0.0,0.0,65,0.00,,,0.00,WeatherCatV1.15B25,2013-05-08 02:37:00,
2013-05-07 22:42:00,62.7,50.3,29.98,North,9,0.0,0.0,64,0.00,,,0.00,WeatherCatV1.15B25,2013-05-08 02:42:00,
2013-05-07 22:47:00,62.8,50.4,29.98,North,9,0.0,0.0,64,0.00,,,0.00,WeatherCatV1.15B25,2013-05-08 02:47:00,
2013-05-07 22:52:00,62.8,50.4,29.98,North,9,0.0,0.0,64,0.00,,,0.00,WeatherCatV1.15B25,2013-05-08 02:52:00,
2013-05-07 22:57:00,62.8,50.0,29.98,North,9,0.0,2.0,63,0.00,,,0.00,WeatherCatV1.15B25,2013-05-08 02:57:00,
2013-05-07 23:02:00,62.8,50.0,29.97,North,9,0.0,0.0,63,0.00,,,0.00,WeatherCatV1.15B25,2013-05-08 03:02:00,
2013-05-07 23:07:00,62.8,50.0,29.97,North,9,0.0,0.0,63,0.00,,,0.00,WeatherCatV1.15B25,2013-05-08 03:07:00,
2013-05-07 23:12:00,62.8,50.0,29.97,North,9,1.0,3.0,63,0.00,,,0.00,WeatherCatV1.15B25,2013-05-08 03:12:00,
2013-05-07 23:17:00,62.8,50.0,29.97,North,9,0.0,1.0,63,0.00,,,0.00,WeatherCatV1.15B25,2013-05-08 03:17:00,
2013-05-07 23:22:00,62.8,50.0,29.97,North,9,0.0,3.0,63,0.00,,,0.00,WeatherCatV1.15B25,2013-05-08 03:22:00,
2013-05-07 23:27:00,62.6,49.8,29.97,North,9,0.0,0.0,63,0.00,,,0.00,WeatherCatV1.15B25,2013-05-08 03:27:00,
2013-05-07 23:32:00,62.5,49.7,29.97,NE,44,0.0,1.0,63,0.00,,,0.00,WeatherCatV1.15B25,2013-05-08 03:32:00,
2013-05-07 23:37:00,62.4,50.1,29.97,NE,44,0.0,0.0,64,0.00,,,0.00,WeatherCatV1.15B25,2013-05-08 03:37:00,
2013-05-07 23:42:00,62.2,49.9,29.97,NE,44,0.0,0.0,64,0.00,,,0.00,WeatherCatV1.15B25,2013-05-08 03:42:00,
2013-05-07 23:47:00,62.1,49.8,29.97,NE,44,0.0,0.0,64,0.00,,,0.00,WeatherCatV1.15B25,2013-05-08 03:47:00,
2013-05-07 23:52:00,62.0,49.7,29.97,NE,49,0.0,1.0,64,0.00,,,0.00,WeatherCatV1.15B25,2013-05-08 03:52:00,
2013-05-07 23:57:00,61.9,50.0,29.97,NE,49,0.0,0.0,65,0.00,,,0.00,WeatherCatV1.15B25,2013-05-08 03:57:00,